Weather History for San Diego Brown, CA

Change the Weather History Date:

Tuesday, February 4, 2014

  Actual Average Record
Temperature  
Mean Temperature 53 °F -  
Max Temperature 60 °F 63 °F 84 °F (2001)
Min Temperature 46 °F 43 °F 34 °F (1955)
Degree Days  
Heating Degree Days 12    
Growing Degree Days 3 (Base 50)    
Moisture  
Dew Point 44 °F    
Average Humidity 72    
Maximum Humidity 93    
Minimum Humidity 53    
Precipitation  
Precipitation 0.00 in - - ()
Sea Level Pressure  
Sea Level Pressure 30.05 in    
Wind  
Wind Speed 7 mph (SSW)    
Max Wind Speed 14 mph    
Max Gust Speed 21 mph    
Visibility 10 miles    
Events      
Averages and records for this station are not official NWS values.
T = Trace of Precipitation, MM = Missing Value Source: NWS Daily Summary

Daily Weather History Graph

Daily Weather History Graph

Search for Another Location

Airport:

Trip Planner

Search our weather history database for the weather conditions in past years. The results will help you decide how hot, cold, wet, or windy it might be!

Date:

Astronomy

Feb. 04, 2014 Rise Set
Actual Time 6:40 AM PST 5:23 PM PST
Civil Twilight 6:14 AM PST 5:49 PM PST
Nautical Twilight 5:45 AM PST 6:18 PM PST
Astronomical Twilight 5:16 AM PST 6:47 PM PST
Moon 9:41 AM PST (2/4) 11:00 PM PST (2/4)
Length of Visible Light 11h 34m
Length of Day
10h 43m
Waxing Crescent, 30% of the Moon is Illuminated
Feb 4
Waxing Crescent
Feb 6
First Quarter
Feb 14
Full
Feb 22
Last Quarter
Mar 1
New

Hourly Weather History & Observations

Time (PST) Temp. Dew Point Humidity Pressure Visibility Wind Dir Wind Speed Gust Speed Precip Events Conditions
12:06 AM 48.2 °F 46.4 °F 93% 30.02 in 7.0 mi SE 5.8 mph - N/A   Scattered Clouds
12:53 AM 48.0 °F 45.0 °F 89% 30.02 in 8.0 mi SE 6.9 mph - N/A   Partly Cloudy
1:53 AM 48.0 °F 45.0 °F 89% 30.02 in 10.0 mi SE 5.8 mph - N/A   Scattered Clouds
2:53 AM 48.0 °F 45.0 °F 89% 30.02 in 10.0 mi SE 6.9 mph - N/A   Clear
3:53 AM 48.0 °F 45.0 °F 89% 30.02 in 9.0 mi SE 6.9 mph - N/A   Scattered Clouds
4:53 AM 48.0 °F 45.0 °F 89% 30.02 in 9.0 mi SE 6.9 mph - 0.00 in   Scattered Clouds
5:53 AM 46.9 °F 44.1 °F 90% 30.04 in 10.0 mi SE 6.9 mph - N/A   Clear
6:53 AM 48.0 °F 44.1 °F 86% 30.05 in 10.0 mi SE 6.9 mph - N/A   Partly Cloudy
7:43 AM 51.8 °F 46.4 °F 82% 30.06 in 10.0 mi SE 5.8 mph - N/A   Mostly Cloudy
7:53 AM 52.0 °F 46.0 °F 80% 30.06 in 10.0 mi SSE 6.9 mph - N/A   Overcast
8:53 AM 55.0 °F 46.9 °F 74% 30.08 in 10.0 mi SSE 8.1 mph - N/A   Overcast
9:53 AM 57.9 °F 46.9 °F 67% 30.09 in 10.0 mi Variable 5.8 mph - N/A   Mostly Cloudy
10:16 AM 57.2 °F 44.6 °F 63% 30.10 in 10.0 mi SW 8.1 mph - N/A   Mostly Cloudy
10:53 AM 59.0 °F 44.1 °F 58% 30.10 in 10.0 mi WSW 9.2 mph - N/A   Partly Cloudy
11:53 AM 59.0 °F 42.1 °F 53% 30.07 in 10.0 mi West 10.4 mph - N/A   Scattered Clouds
12:53 PM 59.0 °F 44.1 °F 58% 30.05 in 10.0 mi WNW 8.1 mph 18.4 mph N/A   Mostly Cloudy
1:22 PM 59.0 °F 42.8 °F 55% 30.04 in 10.0 mi SW 11.5 mph - N/A   Mostly Cloudy
1:53 PM 59.0 °F 44.1 °F 58% 30.04 in 10.0 mi West 13.8 mph - N/A   Mostly Cloudy
2:08 PM 60.8 °F 44.6 °F 55% 30.04 in 10.0 mi WSW 12.7 mph 20.7 mph N/A   Overcast
2:46 PM 57.2 °F 42.8 °F 59% 30.03 in 10.0 mi West 10.4 mph - N/A   Mostly Cloudy
2:53 PM 57.9 °F 44.1 °F 60% 30.03 in 10.0 mi West 5.8 mph 16.1 mph N/A   Scattered Clouds
3:53 PM 57.0 °F 43.0 °F 59% 30.03 in 10.0 mi WSW 9.2 mph - N/A   Partly Cloudy
4:53 PM 55.0 °F 43.0 °F 64% 30.03 in 10.0 mi WSW 5.8 mph - N/A   Scattered Clouds
5:53 PM 53.1 °F 43.0 °F 69% 30.04 in 10.0 mi West 4.6 mph - N/A   Clear
6:53 PM 52.0 °F 43.0 °F 71% 30.06 in 10.0 mi SW 4.6 mph - N/A   Clear
7:53 PM 52.0 °F 43.0 °F 71% 30.08 in 10.0 mi Calm Calm - N/A   Mostly Cloudy
8:53 PM 51.1 °F 43.0 °F 74% 30.08 in 10.0 mi Calm Calm - N/A   Overcast
9:53 PM 51.1 °F 43.0 °F 74% 30.09 in 10.0 mi Calm Calm - N/A   Scattered Clouds
10:53 PM 52.0 °F 43.0 °F 71% 30.10 in 10.0 mi Calm Calm - N/A   Overcast
11:53 PM 51.1 °F 43.0 °F 74% 30.09 in 10.0 mi Calm Calm - N/A   Overcast